1487721600.01,23109,11.0,72476.5,-11.13,-12.03,-12.03,0,*6B
1487721601.27,23110,11.0,72440.5,-11.11,-11.97,-11.97,0,*61
1487721602.51,23111,11.0,72426.8,-11.13,-12.03,-12.03,0,*62
1487721603.72,23112,11.0,72420.8,-11.15,-12.03,-12.03,0,*67
1487721604.94,23113,11.0,72420.3,-11.15,-12.03,-12.03,0,*66
1487721606.18,23114,11.0,72412.0,-11.15,-11.97,-12.03,0,*6F
1487721607.44,23115,11.0,72380.5,-11.15,-11.97,-12.11,0,*6D
1487721608.65,23116,11.0,72388.8,-11.15,-12.03,-12.03,0,*63
1487721609.87,23117,11.0,72384.0,-11.15,-12.03,-12.03,0,*62
1487721611.08,23118,11.0,72386.5,-11.15,-12.03,-12.03,0,*6D
1487721612.32,23119,11.0,72372.3,-11.15,-12.03,-12.11,0,*6F
1487721613.55,23120,11.0,72370.0,-11.15,-12.03,-11.97,0,*68
1487721614.82,23121,11.0,72362.8,-11.15,-11.97,-11.97,0,*67
1487721616.08,23122,11.0,72360.8,-11.15,-11.97,-11.97,0,*64
1487721617.35,23123,11.0,72376.0,-11.15,-11.93,-11.97,0,*61
1487721618.62,23124,11.0,72348.0,-11.17,-11.97,-12.03,0,*6E
1487721619.88,23125,11.0,72354.5,-11.15,-11.93,-11.97,0,*67
1487721621.18,23126,11.0,72372.3,-11.13,-11.93,-11.93,0,*66
1487721622.48,23127,11.0,72388.5,-11.13,-11.93,-11.93,0,*67
1487721623.75,23128,11.0,72390.0,-11.15,-11.93,-11.85,0,*69
1487721625.02,23129,11.06,72388.5,-11.15,-11.93,-11.85,0,*68
1487721626.29,23130,11.0,72384.8,-11.15,-11.93,-11.93,0,*67
1487721627.59,23131,11.0,72392.0,-11.13,-11.93,-11.93,0,*60
1487721628.89,23132,11.0,72426.3,-11.13,-11.93,-11.93,0,*63
1487721630.19,23133,11.0,72418.0,-11.13,-11.93,-11.97,0,*66
1487721631.48,23134,11.0,72422.3,-11.13,-11.85,-11.93,0,*62
1487721632.75,23135,11.0,72428.5,-11.15,-11.93,-11.85,0,*65
1487721634.02,23136,11.0,72436.5,-11.15,-11.93,-11.85,0,*66
1487721635.28,23137,11.0,72438.5,-11.15,-11.97,-11.85,0,*63
1487721636.55,23138,11.0,72434.5,-11.15,-11.93,-11.93,0,*6F
1487721637.82,23139,11.0,72440.5,-11.15,-11.85,-11.93,0,*69
1487721639.09,23140,11.0,72458.0,-11.15,-11.97,-11.93,0,*64
1487721640.39,23141,11.0,72470.5,-11.13,-11.93,-11.93,0,*67
1487721641.68,23142,11.0,72478.8,-11.13,-11.97,-11.93,0,*60
1487721642.97,23143,11.06,72494.0,-11.13,-11.93,-11.97,0,*61
1487721644.27,23144,11.0,72488.3,-11.13,-11.93,-11.93,0,*62
1487721645.57,23145,11.0,72494.3,-11.13,-11.93,-11.93,0,*63
1487721646.87,23146,11.0,72490.3,-11.13,-11.85,-11.93,0,*67
1487721648.16,23147,11.0,72490.5,-11.13,-11.93,-11.93,0,*61
1487721649.46,23148,11.0,72494.8,-11.13,-11.93,-11.85,0,*69
1487721650.72,23149,11.0,72494.3,-11.15,-11.85,-11.85,0,*69
1487721651.98,23150,11.0,72496.3,-11.15,-11.85,-11.81,0,*65
1487721653.24,23151,11.0,72498.3,-11.15,-11.85,-11.85,0,*60
1487721654.51,23152,11.0,72496.5,-11.15,-11.85,-11.85,0,*63
1487721655.79,23153,11.0,72500.3,-11.13,-11.81,-11.85,0,*60
1487721657.07,23154,11.0,72506.8,-11.13,-11.85,-11.81,0,*67
1487721658.36,23155,11.0,72514.3,-11.13,-11.81,-11.81,0,*62
1487721659.64,23156,11.0,72522.5,-11.13,-11.81,-11.85,0,*65
1487721660.9,23157,11.0,72522.0,-11.11,-11.77,-11.77,0,*62
1487721662.18,23158,11.0,72526.3,-11.13,-11.81,-11.81,0,*6F
1487721663.44,23159,11.0,72530.3,-11.15,-11.81,-11.81,0,*68
1487721664.7,23160,11.0,72524.3,-11.11,-11.77,-11.81,0,*6F
1487721665.99,23161,11.0,72524.3,-11.13,-11.85,-11.85,0,*65
1487721667.27,23162,11.0,72522.8,-11.13,-11.97,-11.97,0,*66
1487721668.56,23163,11.0,72508.8,-11.13,-11.97,-11.97,0,*67
1487721669.8,23164,11.0,72470.0,-11.13,-12.03,-12.03,0,*60
1487721671.04,23165,11.0,72440.0,-11.13,-12.03,-12.03,0,*61
1487721672.33,23166,11.0,72422.8,-11.13,-11.97,-11.97,0,*62
1487721673.62,23167,11.0,72410.0,-11.13,-11.97,-11.97,0,*63
1487721674.91,23168,11.0,72408.5,-11.13,-11.97,-11.97,0,*6C
1487721676.2,23169,11.0,72416.0,-11.13,-11.97,-11.97,0,*6D
1487721677.49,23170,11.0,72422.8,-11.13,-11.97,-11.93,0,*61
1487721678.78,23171,11.0,72420.8,-11.13,-11.93,-11.97,0,*60
1487721680.05,23172,11.0,72412.5,-11.15,-11.97,-11.93,0,*65
1487721681.34,23173,11.0,72420.3,-11.13,-11.97,-11.97,0,*66
1487721682.63,23174,11.0,72422.5,-11.13,-11.97,-11.97,0,*61
1487721683.92,23175,11.0,72434.3,-11.13,-11.93,-11.97,0,*64
1487721685.18,23176,11.0,72426.5,-11.15,-11.97,-11.97,0,*65
1487721686.43,23177,11.0,72428.5,-11.15,-11.97,-12.03,0,*6A
1487721687.67,23178,11.0,72408.3,-11.15,-11.97,-12.03,0,*65
1487721688.93,23179,11.0,72404.3,-11.13,-12.11,-12.03,0,*6F
1487721690.2,23180,11.0,72402.3,-11.15,-12.11,-12.11,0,*6C
1487721691.49,23181,11.0,72378.3,-11.17,-12.07,-12.07,0,*6F
1487721692.7,23182,11.0,72376.3,-11.15,-12.03,-12.03,0,*6E
1487721694.0,23183,11.0,72372.0,-11.17,-12.07,-12.07,0,*6D
1487721695.21,23184,11.0,72344.5,-11.15,-12.03,-12.03,0,*68
1487721696.42,23185,11.0,72366.0,-11.15,-12.03,-12.03,0,*69
1487721697.64,23186,11.0,72372.3,-11.15,-12.03,-12.03,0,*6A
1487721698.9,23187,11.0,72404.0,-11.15,-11.97,-11.97,0,*6B
1487721700.16,23188,11.0,72412.5,-11.15,-11.97,-11.97,0,*64
1487721701.43,23189,11.0,72408.5,-11.15,-11.97,-11.97,0,*65
1487721702.66,23190,11.0,72396.8,-11.17,-12.03,-12.03,0,*6F
1487721703.9,23191,11.0,72396.8,-11.15,-12.03,-11.97,0,*62
1487721705.19,23192,11.0,72412.3,-11.17,-12.07,-12.15,0,*6E
1487721706.4,23193,11.0,72406.8,-11.15,-12.03,-12.03,0,*6E
1487721707.62,23194,11.0,72418.0,-11.15,-12.03,-12.03,0,*69
1487721708.83,23195,11.0,72404.5,-11.15,-12.03,-12.03,0,*68
1487721710.04,23196,11.0,72406.8,-11.15,-12.03,-12.03,0,*6B
1487721711.31,23197,11.0,72412.8,-11.17,-12.07,-12.03,0,*6C
1487721712.58,23198,11.0,72420.0,-11.15,-12.07,-11.97,0,*6F
1487721713.84,23199,11.0,72408.8,-11.17,-11.97,-12.03,0,*68
1487721715.11,23200,11.0,72422.8,-11.15,-11.97,-11.97,0,*67
1487721716.37,23201,11.0,72414.8,-11.17,-12.03,-11.97,0,*6A
1487721717.61,23202,11.0,72416.8,-11.17,-12.03,-12.03,0,*67
1487721718.87,23203,11.0,72408.5,-11.15,-11.97,-11.97,0,*64
1487721720.13,23204,11.0,72398.5,-11.15,-11.97,-11.97,0,*63
1487721721.37,23205,11.0,72410.3,-11.17,-12.03,-12.03,0,*60
1487721722.64,23206,11.0,72412.5,-11.17,-12.07,-12.03,0,*67
1487721723.91,23207,11.0,72422.8,-11.17,-12.07,-12.03,0,*66
1487721725.17,23208,11.0,72432.3,-11.17,-12.03,-11.97,0,*63
1487721726.43,23209,11.0,72438.5,-11.15,-11.97,-11.97,0,*6E
1487721727.67,23210,11.0,72448.0,-11.15,-12.03,-11.97,0,*68
1487721728.94,23211,11.0,72444.8,-11.15,-11.93,-11.97,0,*63
1487721730.18,23212,11.0,72450.3,-11.17,-12.03,-12.03,0,*66
1487721731.44,23213,11.0,72448.8,-11.15,-11.97,-11.97,0,*65
1487721732.7,23214,11.0,72446.5,-11.17,-12.03,-11.97,0,*6E
1487721733.94,23215,11.0,72434.8,-11.17,-12.03,-12.03,0,*61
1487721735.24,23216,11.0,72428.0,-11.17,-12.07,-12.07,0,*62
1487721736.53,23217,11.0,72404.3,-11.17,-12.15,-12.07,0,*60
1487721737.82,23218,11.0,72404.3,-11.17,-12.15,-12.07,0,*6F
1487721739.11,23219,11.0,72382.3,-11.17,-12.07,-12.15,0,*6E
1487721740.4,23220,11.0,72342.3,-11.17,-12.15,-12.07,0,*64
1487721741.7,23221,11.0,72376.0,-11.17,-12.07,-12.07,0,*66
1487721742.99,23222,11.0,72402.8,-11.17,-12.07,-12.07,0,*65
1487721744.26,23223,11.0,72386.3,-11.17,-12.07,-12.03,0,*60
1487721745.52,23224,11.0,72404.0,-11.17,-12.03,-11.97,0,*6D
1487721746.79,23225,11.0,72424.3,-11.15,-11.93,-11.97,0,*64
1487721748.03,23226,11.0,72414.8,-11.17,-12.03,-12.03,0,*61
1487721749.27,23227,11.0,72402.5,-11.17,-12.03,-12.03,0,*60
1487721750.53,23228,11.0,72414.5,-11.17,-12.03,-11.97,0,*61
1487721751.77,23229,11.0,72414.8,-11.17,-12.03,-12.03,0,*6E
1487721753.01,23230,11.0,72414.0,-11.17,-12.03,-12.03,0,*66
1487721754.28,23231,11.0,72404.8,-11.15,-11.93,-11.93,0,*65
1487721755.57,23232,11.0,72412.5,-11.17,-11.97,-11.97,0,*64
1487721756.86,23233,11.0,72416.3,-11.17,-11.97,-11.97,0,*65
1487721758.15,23234,11.0,72432.3,-11.17,-11.97,-11.89,0,*6D
1487721759.44,23235,11.0,72436.8,-11.17,-11.97,-11.97,0,*63
1487721760.71,23236,11.0,72416.0,-11.17,-11.97,-12.03,0,*6E
1487721762.0,23237,11.0,72434.0,-11.17,-11.97,-11.97,0,*61
1487721763.27,23238,11.0,72448.3,-11.19,-11.93,-11.93,0,*60
1487721764.56,23239,11.0,72462.0,-11.17,-11.89,-11.89,0,*6F
1487721765.86,23240,11.0,72436.8,-11.17,-11.89,-11.89,0,*61
1487721767.15,23241,11.0,72406.3,-11.17,-11.97,-11.97,0,*60
1487721768.44,23242,11.0,72418.3,-11.17,-11.97,-11.97,0,*63
1487721769.7,23243,11.0,72410.0,-11.17,-12.03,-11.89,0,*63
1487721770.97,23244,11.0,72366.5,-11.15,-11.93,-11.93,0,*67
1487721772.27,23245,11.0,72374.3,-11.17,-11.89,-11.89,0,*64
1487721773.53,23246,11.0,72374.8,-11.15,-11.85,-11.85,0,*65
1487721774.82,23247,11.06,72406.0,-11.17,-11.89,-11.97,0,*69
1487721776.11,23248,11.0,72406.5,-11.17,-11.89,-11.89,0,*69
1487721777.4,23249,11.0,72376.8,-11.17,-11.89,-11.97,0,*67
1487721778.69,23250,11.0,72346.8,-11.17,-11.97,-11.97,0,*60
1487721779.96,23251,11.0,72368.3,-11.15,-11.97,-11.93,0,*67
1487721781.25,23252,11.0,72380.5,-11.17,-11.97,-11.97,0,*62
1487721782.54,23253,11.0,72420.8,-11.17,-11.97,-11.89,0,*6C
1487721783.83,23254,11.0,72428.8,-11.17,-11.97,-11.89,0,*6B
1487721785.12,23255,11.0,72436.5,-11.17,-11.97,-11.97,0,*65
1487721786.39,23256,11.0,72444.3,-11.15,-11.97,-11.93,0,*60
1487721787.65,23257,11.0,72426.5,-11.15,-11.85,-11.85,0,*65
1487721788.91,23258,11.0,72414.5,-11.15,-11.85,-11.85,0,*6A
1487721790.2,23259,11.0,72434.8,-11.17,-11.85,-11.89,0,*65
1487721791.5,23260,11.0,72426.8,-11.17,-11.89,-11.89,0,*63
1487721792.76,23261,11.0,72440.0,-11.15,-11.85,-11.85,0,*60
1487721794.02,23262,11.0,72442.5,-11.15,-11.93,-11.81,0,*60
1487721795.28,23263,11.0,72442.3,-11.15,-11.85,-11.81,0,*66
1487721796.57,23264,11.0,72448.0,-11.17,-11.85,-11.97,0,*64
1487721797.83,23265,11.0,72436.5,-11.15,-11.85,-11.85,0,*64
1487721799.1,23266,11.0,72434.5,-11.15,-11.85,-11.85,0,*67
1487721800.36,23267,11.0,72422.5,-11.15,-11.97,-11.85,0,*65
1487721801.65,23268,11.0,72420.0,-11.17,-11.89,-11.89,0,*6B
1487721802.94,23269,11.0,72420.5,-11.17,-11.89,-11.81,0,*62
1487721804.2,23270,11.0,72434.0,-11.15,-11.81,-11.85,0,*64
1487721805.49,23271,11.0,72436.0,-11.17,-11.89,-11.89,0,*63
1487721806.75,23272,11.0,72436.0,-11.15,-11.85,-11.81,0,*66
1487721808.04,23273,11.0,72424.8,-11.17,-11.85,-11.85,0,*61
1487721809.3,23274,11.0,72426.8,-11.15,-11.81,-11.85,0,*60
1487721810.59,23275,11.0,72428.5,-11.17,-11.85,-11.89,0,*6B
1487721811.84,23276,11.0,72414.5,-11.15,-11.81,-11.81,0,*66
1487721813.11,23277,11.0,72422.8,-11.15,-11.85,-11.85,0,*67
1487721814.36,23278,11.0,72434.3,-11.15,-11.81,-11.81,0,*68
1487721815.62,23279,11.0,72436.3,-11.15,-11.81,-11.81,0,*69
1487721816.87,23280,11.0,72438.5,-11.15,-11.81,-11.81,0,*6F
1487721818.16,23281,11.0,72450.0,-11.17,-11.85,-11.77,0,*61
1487721819.42,23282,11.0,72462.5,-11.15,-11.81,-11.85,0,*69
1487721820.67,23283,11.0,72466.0,-11.15,-11.81,-11.81,0,*6C
1487721821.93,23284,11.0,72462.0,-11.15,-11.81,-11.81,0,*6B
1487721823.19,23285,11.0,72462.3,-11.15,-11.81,-11.81,0,*6A
1487721824.44,23286,11.0,72466.8,-11.15,-11.81,-11.81,0,*69
1487721825.7,23287,11.0,72454.0,-11.15,-11.85,-11.81,0,*6C
1487721826.99,23288,11.0,72454.5,-11.17,-11.85,-11.85,0,*65
1487721828.28,23289,11.0,72452.5,-11.17,-11.85,-11.89,0,*68
1487721829.54,23290,11.0,72444.5,-11.15,-11.81,-11.81,0,*6E
1487721830.8,23291,11.0,72436.0,-11.15,-11.81,-11.73,0,*62
1487721832.08,23292,11.0,72432.5,-11.13,-11.81,-11.81,0,*6A
1487721833.37,23293,11.0,72428.0,-11.13,-11.85,-11.73,0,*62
1487721834.65,23294,11.0,72430.3,-11.13,-11.85,-11.85,0,*6C
1487721835.91,23295,11.0,72428.8,-11.11,-11.81,-11.85,0,*6B
1487721837.19,23296,11.0,72430.3,-11.13,-11.81,-11.81,0,*6E
1487721838.46,23297,11.0,72430.0,-11.15,-11.85,-11.85,0,*69
1487721839.71,23298,11.0,72424.3,-11.15,-11.81,-11.85,0,*62
1487721841.0,23299,11.0,72420.5,-11.13,-11.81,-11.85,0,*65
1487721842.26,23300,11.0,72418.8,-11.15,-11.85,-11.81,0,*62
1487721843.54,23301,11.0,72422.5,-11.13,-11.81,-11.81,0,*61
1487721844.82,23302,11.0,72416.5,-11.13,-11.85,-11.81,0,*66
1487721846.11,23303,11.0,72414.8,-11.13,-11.85,-11.81,0,*67
1487721847.39,23304,11.0,72416.5,-11.13,-11.81,-11.81,0,*64
1487721848.67,23305,11.0,72418.8,-11.13,-11.81,-11.81,0,*65
1487721849.96,23306,11.0,72422.5,-11.13,-11.81,-11.85,0,*62
1487721851.25,23307,11.0,72432.8,-11.13,-11.93,-11.85,0,*60
1487721852.55,23308,11.0,72438.3,-11.13,-11.93,-11.85,0,*6F
1487721853.83,23309,11.0,72442.3,-11.13,-11.81,-11.85,0,*6D
1487721855.12,23310,11.0,72446.5,-11.13,-11.85,-11.85,0,*61
1487721856.41,23311,11.0,72450.8,-11.13,-11.85,-11.85,0,*60
1487721857.7,23312,11.0,72450.8,-11.13,-11.85,-11.81,0,*67
1487721858.98,23313,11.0,72438.5,-11.13,-11.85,-11.81,0,*66
1487721860.27,23314,11.0,72428.8,-11.13,-11.85,-11.85,0,*65
1487721861.56,23315,11.0,72426.3,-11.13,-11.85,-11.85,0,*64
1487721862.85,23316,11.0,72440.8,-11.13,-11.85,-11.85,0,*67
1487721864.13,23317,11.0,72428.0,-11.13,-11.81,-11.81,0,*66
1487721865.38,23318,11.0,72418.8,-11.11,-11.81,-11.81,0,*6B
1487721866.66,23319,11.0,72416.3,-11.13,-11.81,-11.81,0,*68
1487721867.95,23320,11.0,72416.8,-11.13,-11.81,-11.81,0,*62
1487721869.23,23321,11.0,72428.0,-11.13,-11.85,-11.81,0,*67
1487721870.51,23322,11.0,72432.3,-11.13,-11.81,-11.81,0,*60
1487721871.8,23323,11.0,72438.3,-11.13,-11.85,-11.81,0,*65
1487721873.06,23324,11.0,72440.3,-11.11,-11.77,-11.77,0,*64
1487721874.32,23325,11.0,72434.5,-11.11,-11.77,-11.77,0,*65
1487721875.6,23326,11.0,72420.5,-11.13,-11.81,-11.85,0,*60
1487721876.86,23327,11.0,72414.5,-11.11,-11.81,-11.81,0,*67
1487721878.12,23328,11.0,72398.0,-11.11,-11.77,-11.81,0,*61
1487721879.38,23329,11.0,72408.5,-11.11,-11.93,-11.85,0,*6E
1487721880.67,23330,11.0,72392.5,-11.13,-11.85,-11.85,0,*63
1487721881.93,23331,11.0,72394.8,-11.11,-11.77,-11.81,0,*69
1487721883.22,23332,11.0,72394.3,-11.13,-11.85,-11.85,0,*61
1487721884.48,23333,11.0,72386.3,-11.11,-11.77,-11.81,0,*6B
1487721885.73,23334,11.0,72396.3,-11.11,-11.81,-11.81,0,*65
1487721887.02,23335,11.0,72402.0,-11.13,-11.85,-11.85,0,*66
1487721888.31,23336,11.0,72392.8,-11.13,-11.85,-11.85,0,*65
1487721889.59,23337,11.0,72388.8,-11.13,-11.81,-11.81,0,*64
1487721890.87,23338,11.0,72394.8,-11.13,-11.81,-11.81,0,*6B
1487721892.16,23339,11.0,72394.8,-11.13,-11.85,-11.85,0,*6A
1487721893.45,23340,11.0,72396.5,-11.13,-11.81,-11.85,0,*60
1487721894.73,23341,11.0,72402.0,-11.13,-11.85,-11.81,0,*61
1487721895.99,23342,11.0,72406.5,-11.11,-11.81,-11.77,0,*6D
1487721897.24,23343,11.0,72404.5,-11.11,-11.81,-11.77,0,*6C
1487721898.53,23344,11.0,72436.3,-11.13,-11.85,-11.81,0,*64
1487721899.79,23345,11.0,72442.3,-11.11,-11.77,-11.81,0,*6A
1487721901.04,23346,11.0,72442.5,-11.15,-11.81,-11.81,0,*64
1487721902.33,23347,11.0,72450.8,-11.13,-11.81,-11.85,0,*67
1487721903.59,23348,11.0,72442.8,-11.11,-11.89,-11.81,0,*66
1487721904.88,23349,11.0,72440.8,-11.13,-11.93,-11.85,0,*6A
1487721906.15,23350,11.0,72446.0,-11.11,-11.93,-11.89,0,*6C
1487721907.41,23351,11.0,72444.5,-11.11,-11.89,-11.81,0,*6E
1487721908.71,23352,11.0,72456.8,-11.13,-11.93,-11.93,0,*67
1487721909.97,23353,11.0,72454.8,-11.11,-11.89,-11.77,0,*65
1487721911.23,23354,11.0,72450.8,-11.11,-11.81,-11.81,0,*63
1487721912.48,23355,11.0,72444.0,-11.11,-11.81,-11.81,0,*62
1487721913.75,23356,11.0,72448.8,-11.11,-11.93,-11.89,0,*6A
1487721915.03,23357,11.0,72450.0,-11.11,-11.93,-11.93,0,*60
1487721916.32,23358,11.0,72442.5,-11.13,-11.97,-11.97,0,*6D
1487721917.58,23359,11.0,72444.5,-11.11,-11.89,-11.89,0,*6E
1487721918.88,23360,11.0,72438.8,-11.13,-11.93,-11.93,0,*66
1487721920.17,23361,11.0,72436.0,-11.13,-11.93,-11.81,0,*64
1487721921.46,23362,11.0,72436.8,-11.13,-11.85,-11.81,0,*60
1487721922.74,23363,11.0,72436.3,-11.13,-11.81,-11.81,0,*65
1487721924.03,23364,11.0,72418.8,-11.13,-11.81,-11.85,0,*66
1487721925.31,23365,11.0,72416.0,-11.13,-11.81,-11.73,0,*6E
1487721926.59,23366,11.0,72420.5,-11.13,-11.81,-11.81,0,*60
1487721927.87,23367,11.0,72424.0,-11.13,-11.81,-11.81,0,*61
1487721929.13,23368,11.0,72434.8,-11.11,-11.77,-11.77,0,*6C
1487721930.42,23369,11.0,72438.8,-11.13,-11.85,-11.81,0,*6B
1487721931.7,23370,11.0,72430.8,-11.13,-11.85,-11.81,0,*63
1487721932.99,23371,11.0,72428.0,-11.13,-11.85,-11.85,0,*66
1487721934.28,23372,11.0,72420.8,-11.13,-11.85,-11.81,0,*61
1487721935.53,23373,11.0,72416.8,-11.11,-11.77,-11.81,0,*6F
1487721936.82,23374,11.0,72418.8,-11.13,-11.85,-11.85,0,*63
1487721938.11,23375,11.0,72418.5,-11.13,-11.81,-11.85,0,*66
1487721939.4,23376,11.0,72422.8,-11.13,-11.85,-11.85,0,*61
1487721940.68,23377,11.0,72430.5,-11.13,-11.85,-11.81,0,*64
1487721941.96,23378,11.0,72438.5,-11.13,-11.81,-11.81,0,*6F
1487721943.25,23379,11.0,72450.0,-11.13,-11.85,-11.85,0,*6E
1487721944.54,23380,11.0,72444.3,-11.13,-11.81,-11.85,0,*6C
1487721945.82,23381,11.0,72448.5,-11.13,-11.85,-11.81,0,*6D
1487721947.11,23382,11.0,72454.0,-11.13,-11.85,-11.81,0,*6E
1487721948.39,23383,11.0,72448.3,-11.13,-11.81,-11.77,0,*62
1487721949.67,23384,11.0,72454.0,-11.13,-11.81,-11.85,0,*68
1487721950.96,23385,11.0,72446.5,-11.13,-11.81,-11.73,0,*60
1487721952.25,23386,11.0,72448.0,-11.13,-11.85,-11.85,0,*6E
1487721953.5,23387,11.0,72440.5,-11.11,-11.81,-11.81,0,*6D
1487721954.78,23388,11.0,72442.8,-11.13,-11.81,-11.81,0,*60
1487721956.07,23389,11.0,72440.5,-11.13,-11.81,-11.81,0,*61
1487721957.35,23390,11.0,72448.3,-11.13,-11.85,-11.81,0,*6D
1487721958.64,23391,11.0,72454.5,-11.13,-11.93,-11.85,0,*6F
1487721959.94,23392,11.0,72458.5,-11.13,-11.93,-11.85,0,*6C
1487721961.23,23393,11.0,72460.3,-11.13,-11.85,-11.85,0,*6A
1487721962.49,23394,11.0,72464.0,-11.11,-11.89,-11.81,0,*67
1487721963.78,23395,11.0,72450.0,-11.13,-11.97,-11.97,0,*6C
1487721965.07,23396,11.0,72434.5,-11.13,-11.97,-11.97,0,*6F
1487721966.35,23397,11.0,72438.8,-11.13,-11.97,-11.97,0,*6E
1487721967.64,23398,11.0,72434.5,-11.13,-11.97,-11.97,0,*61
1487721968.93,23399,11.0,72432.5,-11.13,-11.97,-11.97,0,*60
1487721970.19,23400,11.0,72420.5,-11.13,-12.03,-11.97,0,*69
1487721971.46,23401,11.0,72420.3,-11.11,-11.97,-11.93,0,*60
1487721972.72,23402,11.0,72422.8,-11.13,-12.03,-11.97,0,*6B
1487721973.98,23403,11.0,72426.3,-11.13,-12.03,-11.97,0,*6A
1487721975.25,23404,11.0,72420.3,-11.11,-11.97,-11.93,0,*65
1487721976.49,23405,11.0,72416.0,-11.15,-12.03,-11.97,0,*6A
1487721977.73,23406,11.0,72414.5,-11.15,-12.03,-11.93,0,*6D
1487721978.96,23407,11.0,72412.8,-11.15,-12.03,-11.97,0,*68
1487721980.23,23408,11.0,72402.8,-11.15,-11.93,-11.97,0,*6D
1487721981.5,23409,11.0,72380.5,-11.15,-11.97,-11.93,0,*6C
1487721982.77,23410,11.0,72384.8,-11.15,-11.93,-11.93,0,*60
1487721984.07,23411,11.0,72378.3,-11.13,-11.97,-11.93,0,*63
1487721985.34,23412,11.0,72382.8,-11.15,-11.93,-11.93,0,*62
1487721986.61,23413,11.0,72368.3,-11.15,-11.93,-11.97,0,*67
1487721987.88,23414,11.0,72408.8,-11.15,-11.93,-11.97,0,*60
1487721989.15,23415,11.0,72424.0,-11.15,-11.93,-11.93,0,*65
1487721990.41,23416,11.0,72446.5,-11.15,-11.97,-11.85,0,*65
1487721991.71,23417,11.0,72464.0,-11.13,-11.93,-11.85,0,*66
1487721993.0,23418,11.0,72468.8,-11.13,-11.81,-11.93,0,*6D
1487721994.3,23419,11.0,72480.3,-11.13,-11.93,-11.93,0,*6F
1487721995.59,23420,11.0,72478.8,-11.13,-11.93,-11.85,0,*62
1487721996.86,23421,11.0,72446.3,-11.15,-11.89,-11.85,0,*6E
1487721998.12,23422,11.0,72448.3,-11.15,-11.85,-11.85,0,*61
1487721999.39,23423,11.0,72452.5,-11.15,-11.93,-11.93,0,*60
1487722000.69,23424,11.0,72450.0,-11.13,-11.93,-11.85,0,*66
1487722001.97,23425,11.0,72426.8,-11.13,-11.85,-11.85,0,*60
1487722003.26,23426,11.0,72428.8,-11.13,-11.81,-11.85,0,*67
1487722004.55,23427,11.0,72454.0,-11.13,-11.85,-11.93,0,*65
1487722005.84,23428,11.0,72464.3,-11.13,-11.81,-11.93,0,*6E
1487722007.13,23429,11.0,72474.0,-11.13,-11.85,-11.85,0,*6C
1487722008.41,23430,11.0,72474.5,-11.13,-11.85,-11.81,0,*60
1487722009.7,23431,11.0,72466.8,-11.13,-11.85,-11.81,0,*61
1487722010.99,23432,11.0,72468.0,-11.13,-11.85,-11.85,0,*66
1487722012.28,23433,11.0,72456.0,-11.13,-11.85,-11.85,0,*67
1487722013.57,23434,11.0,72438.0,-11.13,-11.85,-11.93,0,*67
1487722014.83,23435,11.0,72422.5,-11.15,-11.97,-11.97,0,*67
1487722016.1,23436,11.0,72424.3,-11.15,-11.93,-11.93,0,*64
1487722017.37,23437,11.0,72442.0,-11.15,-11.85,-11.93,0,*62
1487722018.67,23438,11.0,72438.5,-11.13,-11.93,-11.97,0,*68
1487722019.96,23439,11.0,72436.8,-11.13,-11.93,-11.85,0,*6A
1487722021.25,23440,11.0,72436.0,-11.13,-11.97,-11.93,0,*67
1487722022.55,23441,11.0,72426.8,-11.13,-11.93,-11.97,0,*66
1487722023.81,23442,11.0,72418.3,-11.15,-11.97,-11.97,0,*67
1487722025.11,23443,11.0,72418.5,-11.13,-11.93,-11.93,0,*60
1487722026.38,23444,11.0,72418.8,-11.15,-11.93,-11.93,0,*61
1487722027.68,23445,11.0,72406.8,-11.13,-11.93,-11.85,0,*61
1487722028.95,23446,11.0,72412.8,-11.15,-11.93,-11.93,0,*63
1487722030.25,23447,11.0,72358.3,-11.13,-11.93,-11.97,0,*60
1487722031.54,23448,11.0,72324.5,-11.13,-11.97,-11.97,0,*6B
1487722032.83,23449,11.0,72338.0,-11.13,-11.97,-11.97,0,*6A
1487722034.12,23450,11.0,72348.5,-11.13,-12.11,-11.97,0,*6F
1487722035.38,23451,11.0,72354.0,-11.15,-12.11,-11.97,0,*68
1487722036.59,23452,11.0,72356.3,-11.15,-12.03,-12.03,0,*66
1487722037.81,23453,11.0,72360.0,-11.15,-12.03,-12.03,0,*67
1487722039.07,23454,11.0,72370.8,-11.17,-12.07,-12.03,0,*66
1487722040.31,23455,11.0,72358.8,-11.15,-12.03,-11.97,0,*6F
1487722041.57,23456,11.0,72374.8,-11.15,-11.97,-11.97,0,*62
1487722042.84,23457,11.0,72378.0,-11.15,-11.97,-11.97,0,*63
1487722044.11,23458,11.0,72392.3,-11.15,-11.93,-11.97,0,*68
1487722045.37,23459,11.0,72394.0,-11.15,-11.97,-11.97,0,*6D
1487722046.66,23460,11.0,72398.3,-11.17,-11.97,-11.97,0,*65
1487722047.9,23461,11.0,72408.8,-11.17,-12.03,-12.03,0,*64
1487722049.16,23462,11.0,72390.5,-11.15,-11.97,-11.97,0,*65
1487722050.37,23463,11.0,72380.8,-11.15,-12.03,-12.03,0,*64
1487722051.61,23464,11.0,72388.0,-11.15,-12.11,-12.03,0,*60
1487722052.88,23465,11.0,72426.8,-11.15,-12.11,-12.11,0,*62
1487722054.09,23466,11.0,72412.0,-11.15,-12.03,-12.03,0,*61
1487722055.39,23467,11.0,72388.0,-11.17,-12.07,-12.07,0,*62
1487722056.6,23468,11.0,72384.5,-11.15,-12.03,-12.03,0,*6F
1487722057.81,23469,11.0,72386.0,-11.15,-12.03,-12.03,0,*6E
1487722059.03,23470,11.0,72384.0,-11.15,-12.03,-12.03,0,*66
1487722060.24,23471,11.0,72380.8,-11.15,-12.03,-12.03,0,*67
1487722061.53,23472,11.0,72384.3,-11.17,-12.07,-12.07,0,*66
1487722062.82,23473,11.0,72382.8,-11.17,-12.07,-12.07,0,*67
1487722064.09,23474,11.0,72366.5,-11.15,-11.97,-11.97,0,*62
1487722065.33,23475,11.0,72380.5,-11.17,-12.03,-12.03,0,*61
1487722066.59,23476,11.0,72404.5,-11.17,-11.97,-12.03,0,*6C
1487722067.88,23477,11.0,72410.8,-11.17,-11.97,-11.97,0,*63
1487722069.15,23478,11.0,72424.0,-11.17,-11.97,-12.03,0,*62
1487722070.44,23479,11.0,72422.5,-11.17,-11.97,-11.97,0,*6D
1487722071.7,23480,11.0,72424.3,-11.15,-11.97,-11.97,0,*69
1487722072.99,23481,11.0,72422.5,-11.17,-11.89,-11.85,0,*66
1487722074.28,23482,11.0,72426.3,-11.17,-11.85,-11.89,0,*65
1487722075.54,23483,11.0,72436.0,-11.15,-11.85,-11.85,0,*6A
1487722076.8,23484,11.0,72448.8,-11.15,-11.81,-11.81,0,*6D
1487722078.09,23485,11.0,72454.3,-11.17,-11.89,-11.89,0,*6E
1487722079.39,23486,11.0,72464.3,-11.17,-11.85,-11.89,0,*61
1487722080.64,23487,11.0,72470.8,-11.15,-11.81,-11.81,0,*6E
1487722081.9,23488,11.0,72490.0,-11.15,-11.85,-11.81,0,*65
1487722083.19,23489,11.0,72490.3,-11.17,-11.89,-11.85,0,*6E
1487722084.45,23490,11.0,72496.5,-11.15,-11.81,-11.85,0,*6C
1487722085.71,23491,11.0,72498.5,-11.15,-11.85,-11.81,0,*6D
1487722087.0,23492,11.0,72496.8,-11.17,-11.89,-11.89,0,*68
1487722088.27,23493,11.0,72502.8,-11.15,-11.93,-11.85,0,*6C
1487722089.56,23494,11.0,72496.5,-11.17,-11.89,-11.89,0,*6E
1487722090.85,23495,11.0,72498.5,-11.17,-11.97,-11.97,0,*6F
1487722092.13,23496,11.0,72488.0,-11.15,-11.93,-11.93,0,*6E
1487722093.36,23497,11.0,72468.8,-11.17,-12.03,-12.03,0,*6D
1487722094.63,23498,11.0,72458.8,-11.15,-11.97,-11.97,0,*60
1487722095.89,23499,11.0,72424.3,-11.15,-12.15,-12.11,0,*65
1487722097.16,23500,11.0,72426.5,-11.15,-12.15,-12.15,0,*60
1487722098.4,23501,11.0,72404.5,-11.17,-12.29,-12.29,0,*63
1487722099.7,23502,11.0,72432.8,-11.17,-12.35,-12.35,0,*60
1487722100.96,23503,11.0,72438.0,-11.17,-12.43,-12.35,0,*60
1487722102.26,23504,11.0,72420.8,-11.17,-12.35,-12.35,0,*66
1487722103.55,23505,11.0,72346.5,-11.17,-12.35,-12.35,0,*67
1487722104.85,23506,11.0,72376.5,-11.17,-12.35,-12.35,0,*64
1487722106.1,23507,11.0,72406.0,-11.17,-12.29,-12.29,0,*65
1487722107.31,23508,11.0,72428.3,-11.19,-12.25,-12.25,0,*64